Location: ?????
(44.4284°N, 135.2222°E)
Time: 06:11:00
(UTC+00:00)

USA 238 DEB - Pass Details

Date: 19 May 2025
Orbit: 899 x 1311 km, 63.4° (Epoch: 11 June)

Event Time Altitude Azimuth Distance (km) Brightness Sun altitude
Rises 17:48:32 0° 322° (NW) 3,972 6.8 -14.5°
Reaches altitude 10° 17:51:08 10° 323° (NW) 3,065 6.2 -14.2°
Maximum altitude 17:58:35 88° 51° (NE) 1,241 4.0 -13.3°
Drops below altitude 10° 18:06:39 10° 144° (SE) 3,292 6.2 -12.3°
Sets 18:09:32 0° 144° (SE) 4,280 6.8 -11.9°
